This is the latest recevied weather packets stored in our database for station/object KF6ILA. If no packets are shown the sender has not sent any weather packets the latest 10 day(s).
| Time | Temp. | Humidity | Pressure | Rain* | Wind** | Luminosity | Snow |
|---|---|---|---|---|---|---|---|
| 1787689126 | 33.33° C | 34% | 1018.6 hPa | 0 mm | - | 962 W/m² | - |
| 1787688829 | 33.89° C | 32% | 1018.8 hPa | 0 mm | - | 974 W/m² | - |
| 1787688532 | 34.44° C | 31% | 1018.9 hPa | 0 mm | - | 981 W/m² | - |
| 1787688235 | 34.44° C | 31% | 1018.8 hPa | 0 mm | - | 967 W/m² | - |
| 1787687938 | 34.44° C | 31% | 1018.9 hPa | 0 mm | - | 970 W/m² | - |
| 1787687641 | 35° C | 29% | 1018.9 hPa | 0 mm | - | 155 W/m² | - |
| 1787687344 | 36.11° C | 28% | 1018.8 hPa | 0 mm | - | 995 W/m² | - |
| 1787687047 | 36.67° C | 26% | 1018.8 hPa | 0 mm | - | 984 W/m² | - |
| 1787686750 | 37.78° C | 26% | 1018.9 hPa | 0 mm | - | 983 W/m² | - |
| 1787686453 | 37.78° C | 25% | 1018.9 hPa | 0 mm | - | 984 W/m² | - |
| 1787686156 | 37.78° C | 25% | 1018.9 hPa | 0 mm | - | 991 W/m² | - |
| 1787685859 | 37.22° C | 25% | 1018.9 hPa | 0 mm | - | 976 W/m² | - |
| 1787685562 | 36.67° C | 26% | 1019 hPa | 0 mm | - | 947 W/m² | - |
| 1787684671 | 37.22° C | 26% | 1019.2 hPa | 0 mm | - | 946 W/m² | - |
| 1787684374 | 37.22° C | 26% | 1019.3 hPa | 0 mm | - | 940 W/m² | - |
| 1787684077 | 36.67° C | 26% | 1019.3 hPa | 0 mm | - | 937 W/m² | - |
| 1787683780 | 36.11° C | 26% | 1019.4 hPa | 0 mm | - | 930 W/m² | - |
| 1787683483 | 36.11° C | 26% | 1019.4 hPa | 0 mm | - | 925 W/m² | - |
| 1787683186 | 36.11° C | 26% | 1019.5 hPa | 0 mm | - | 914 W/m² | - |
| 1787682889 | 36.11° C | 26% | 1019.6 hPa | 0 mm | - | 911 W/m² | - |
| 1787682295 | 36.67° C | 26% | 1019.7 hPa | 0 mm | - | 900 W/m² | - |
| 1787681998 | 36.11° C | 26% | 1019.7 hPa | 0 mm | - | 891 W/m² | - |
| 1787681701 | 36.11° C | 26% | 1019.7 hPa | 0 mm | - | 881 W/m² | - |
| 1787681405 | 35.56° C | 27% | 1019.7 hPa | 0 mm | - | 874 W/m² | - |
| 1787681106 | 35.56° C | 26% | 1019.9 hPa | 0 mm | - | 865 W/m² | - |
* Rain latest hour (hover to see other rain measurements)
** Current wind speed in m/s (hover to see current wind gust speed)